This demonstration page uses our WeatherBlox Daily Observations layout. Learn more.

Left ArrowRight Arrow

40.92945, -100.16068

Hourly Observations for October 16, 2020

Temp ( °F °C ) Dew Point ( °F °C ) Humidity (%) Winds ( mph kmh ) Pressure ( in mb ) Visibility ( mi km ) Precip ( " mm )
12:15 am 00:15 Clear 30 -0.9 21 -6.2 68 68 W 8 13 30.45 1031 10 16 N/A
12:35 am 00:35 Clear 33 0.3 23 -5.1 67 67 W 8 13 30.46 1031 10 16 N/A
12:55 am 00:55 Clear 35 1.8 24 -4.5 63 63 W 6 9 30.44 1031 10 16 N/A
1:15 am 01:15 Clear 35 1.9 25 -4.1 65 65 W 6 9 30.44 1031 10 16 N/A
1:35 am 01:35 Clear 36 2 25 -4 65 65 W 6 9 30.44 1031 10 16 N/A
1:55 am 01:55 Clear 35 1.8 25 -3.7 67 67 W 5 7 30.44 1031 10 16 N/A
2:15 am 02:15 Clear 35 1.8 26 -3.6 68 68 WNW 5 7 30.44 1031 10 16 N/A
2:35 am 02:35 Clear 35 1.7 26 -3.4 69 69 WNW 6 9 30.45 1031 10 16 N/A
2:55 am 02:55 Clear 36 2.4 27 -3 68 68 WNW 6 9 30.44 1031 10 16 N/A
3:15 am 03:15 Partly Cloudy 37 2.5 27 -2.8 68 68 WNW 8 13 30.44 1031 10 16 N/A
3:35 am 03:35 Clear 36 2 27 -2.8 71 71 NW 5 7 30.44 1031 10 16 N/A
3:55 am 03:55 Clear 34 1.2 27 -3 74 74 WNW 3 6 30.44 1031 10 16 N/A
4:15 am 04:15 Clear 34 1.1 27 -3 74 74 WNW 3 6 30.44 1031 10 16 N/A
4:35 am 04:35 Clear 34 0.9 27 -2.8 77 77 N N/A 30.44 1031 10 16 N/A
4:55 am 04:55 Clear 33 0.6 27 -2.8 78 78 N N/A 30.43 1031 10 16 N/A
5:15 am 05:15 Clear 33 0.6 26 -3.1 77 77 N N/A 30.43 1031 10 16 N/A
5:35 am 05:35 Clear 33 0.7 27 -3 77 77 NNW 5 7 30.43 1031 10 16 N/A
5:55 am 05:55 Clear 34 1 27 -2.8 76 76 NW 5 7 30.43 1030 10 16 N/A
6:15 am 06:15 Clear 34 1 27 -2.6 77 77 NW 3 6 30.42 1030 10 16 N/A
6:35 am 06:35 Clear 33 0.5 27 -2.6 80 80 NW 6 9 30.43 1031 10 16 N/A
6:55 am 06:55 Clear 33 0.8 28 -2.3 80 80 WNW 5 7 30.42 1030 10 16 N/A
7:15 am 07:15 Partly Cloudy 33 0.4 28 -2.5 81 81 WNW 3 6 30.42 1030 10 16 N/A
7:35 am 07:35 Mostly Cloudy 32 0.1 28 -2.5 83 83 W 6 9 30.42 1030 10 16 N/A
7:55 am 07:55 Cloudy 31 -0.3 26 -3.1 82 82 W 7 11 30.42 1030 10 16 N/A
8:15 am 08:15 Cloudy 33 0.7 28 -2.2 81 81 W 5 7 30.41 1030 10 16 N/A
8:35 am 08:35 Cloudy 35 1.7 29 -1.5 80 80 NW 3 6 30.41 1030 7 11 N/A
8:55 am 08:55 Cloudy 36 2.3 30 -1.3 77 77 NW 3 6 30.41 1030 7 11 N/A
9:15 am 09:15 Cloudy 38 3.1 30 -0.9 75 75 N N/A 30.39 1029 10 16 N/A
9:35 am 09:35 Cloudy 40 4.2 31 -0.6 71 71 WNW 3 6 30.39 1029 10 16 N/A
9:55 am 09:55 Cloudy 41 5 31 -0.7 67 67 NNW 3 6 30.37 1028 10 16 N/A
10:15 am 10:15 Mostly Cloudy 42 5.8 31 -0.7 63 63 W 6 9 30.35 1028 10 16 N/A
10:35 am 10:35 Sunny 46 7.8 29 -1.4 53 53 W 9 15 30.33 1027 10 16 N/A
10:55 am 10:55 Mostly Cloudy 47 8.4 28 -2 48 48 W 8 13 30.32 1027 10 16 N/A
11:15 am 11:15 Cloudy 49 9.3 28 -2.1 45 45 W 7 11 30.31 1026 10 16 N/A
11:35 am 11:35 Cloudy 49 9.6 28 -2.4 43 43 WNW 5 7 30.28 1026 10 16 N/A
11:55 am 11:55 Cloudy 52 11 27 -3 38 38 WSW 6 9 30.26 1025 10 16 N/A
12:15 pm 12:15 Cloudy 53 11.6 26 -3.2 36 36 W 6 9 30.25 1024 10 16 N/A
12:35 pm 12:35 Mostly Cloudy 55 12.5 26 -3.6 33 33 SW 7 11 30.22 1023 10 16 N/A
12:55 pm 12:55 Partly Cloudy 56 13.5 25 -3.8 30 30 SSW 14 22 30.18 1022 10 16 N/A
1:15 pm 13:15 Sunny 56 13.6 25 -4.1 29 29 SSW 15 24 30.16 1021 10 16 N/A
1:35 pm 13:35 Sunny 58 14.2 26 -3.1 30 30 WSW 9 15 30.13 1020 10 16 N/A
1:55 pm 13:55 Sunny 59 14.9 27 -2.9 29 29 SSW 21 33 30.10 1019 10 16 N/A
2:15 pm 14:15 Sunny 59 15.1 27 -2.6 30 30 SW 21 33 30.08 1019 10 16 N/A
2:35 pm 14:35 Sunny 60 15.5 28 -2.5 29 29 SSW 16 26 30.06 1018 10 16 N/A
2:55 pm 14:55 Sunny 61 16 28 -2 29 29 SW 17 28 30.03 1017 10 16 N/A
3:15 pm 15:15 Sunny 62 16.7 28 -2.1 28 28 SSW 16 26 30.00 1016 10 16 N/A
3:35 pm 15:35 Sunny 63 17.3 28 -2.1 27 27 SSW 20 31 29.98 1015 10 16 N/A
3:55 pm 15:55 Sunny 64 17.7 28 -2.1 26 26 SSW 21 33 29.95 1014 10 16 N/A
4:15 pm 16:15 Sunny 64 18 28 -2.5 25 25 SW 22 35 29.93 1014 10 16 N/A
4:35 pm 16:35 Sunny 64 17.8 28 -2.1 26 26 SW 17 28 29.92 1013 10 16 N/A
4:55 pm 16:55 Sunny 64 17.9 27 -3 24 24 SSW 16 26 29.92 1013 10 16 N/A
5:15 pm 17:15 Sunny 64 17.7 27 -2.8 25 25 SSW 20 31 29.90 1013 10 16 N/A
5:35 pm 17:35 Mostly Cloudy 64 17.7 28 -2.5 25 25 SSW 15 24 29.89 1012 10 16 N/A
5:55 pm 17:55 Partly Cloudy 64 17.5 27 -2.8 25 25 SSW 16 26 29.87 1012 10 16 N/A
6:15 pm 18:15 Sunny 63 17.1 27 -3 25 25 SSW 16 26 29.87 1011 10 16 N/A
6:35 pm 18:35 Mostly Cloudy 62 16.5 26 -3.5 25 25 SSW 13 20 29.86 1011 10 16 N/A
6:55 pm 18:55 Cloudy 60 15.8 26 -3.4 27 27 SSW 12 19 29.87 1011 10 16 N/A
7:15 pm 19:15 Mostly Cloudy 58 14.7 26 -3.2 29 29 S 9 15 29.87 1011 10 16 N/A
7:35 pm 19:35 Mostly Cloudy 57 13.8 27 -3 31 31 S 9 15 29.87 1011 10 16 N/A
7:55 pm 19:55 Cloudy 57 14 27 -3 31 31 S 9 15 29.86 1011 10 16 N/A
8:15 pm 20:15 Cloudy 57 13.8 27 -2.8 32 32 S 10 17 29.85 1011 10 16 N/A
8:35 pm 20:35 Cloudy 57 14 27 -3 31 31 S 12 19 29.83 1010 10 16 N/A
8:55 pm 20:55 Cloudy 57 14 26 -3.1 31 31 S 13 20 29.82 1010 10 16 N/A
9:15 pm 21:15 Partly Cloudy 56 13.2 26 -3.2 32 32 S 12 19 29.82 1010 10 16 N/A
9:35 pm 21:35 Clear 55 13 26 -3.1 33 33 S 12 19 29.80 1009 10 16 N/A
9:55 pm 21:55 Clear 55 12.8 27 -3 33 33 S 15 24 29.80 1009 10 16 N/A
10:15 pm 22:15 Clear 55 13 27 -3 33 33 S 18 30 29.77 1008 10 16 N/A
10:35 pm 22:35 Clear 55 13 27 -2.8 34 34 S 17 28 29.75 1008 10 16 N/A
10:55 pm 22:55 Clear 55 13 27 -2.7 34 34 S 21 33 29.74 1007 10 16 N/A
11:15 pm 23:15 Clear 55 12.5 27 -2.6 35 35 S 16 26 29.76 1008 10 16 N/A
11:35 pm 23:35 Clear 54 12.1 28 -2.5 36 36 S 14 22 29.75 1008 10 16 N/A
11:55 pm 23:55 Clear 54 12.2 28 -2.3 37 37 S 18 30 29.74 1007 10 16 N/A

Powered by AerisWeather